Weather History for Ord, NE

Change the Weather History Date:

Monday, September 9, 2013

  Actual Average Record
Temperature  
Mean Temperature 81 °F 67 °F  
Max Temperature 97 °F 81 °F 97 °F (2013)
Min Temperature 65 °F 52 °F 36 °F (2012)
Degree Days  
Heating Degree Days 0 2  
Month to date heating degree days 0 13  
Since 1 July heating degree days 7 27  
Cooling Degree Days 16 4  
Month to date cooling degree days 101 44  
Year to date cooling degree days 861 801  
Growing Degree Days 32 (Base 50)    
Moisture  
Dew Point 57 °F    
Average Humidity 47    
Maximum Humidity 73    
Minimum Humidity 20    
Precipitation  
Precipitation 0.00 in 0.09 in 3.85 in (1916)
Month to date precipitation 0.11 0.81  
Year to date precipitation 19.54 19.72  
Sea Level Pressure  
Sea Level Pressure 29.75 in    
Wind  
Wind Speed 8 mph (SSW)    
Max Wind Speed 22 mph    
Max Gust Speed 28 mph    
Visibility 10 miles    
Events      
T = Trace of Precipitation, MM = Missing Value Source: NWS Daily Summary

Daily Weather History Graph

Daily Weather History Graph

Search for Another Location

Airport:

Trip Planner

Search our weather history database for the weather conditions in past years. The results will help you decide how hot, cold, wet, or windy it might be!

Date:

Astronomy

Sep. 09, 2013 Rise Set
Actual Time 7:10 AM CDT 7:55 PM CDT
Civil Twilight 6:42 AM CDT 8:23 PM CDT
Nautical Twilight 6:08 AM CDT 8:56 PM CDT
Astronomical Twilight 5:34 AM CDT 9:30 PM CDT
Moon 11:37 AM CDT (9/9) 10:08 PM CDT (9/9)
Length of Visible Light 13h 40m
Length of Day
12h 44m
Waxing Crescent, 19% of the Moon is Illuminated
Sep 9
Waxing Crescent
Sep 12
First Quarter
Sep 19
Full
Sep 26
Last Quarter
Oct 4
New

Hourly Weather History & Observations

Time (CDT) Temp. Heat Index Dew Point Humidity Pressure Visibility Wind Dir Wind Speed Gust Speed Precip Events Conditions
12:53 AM 73.0 °F - 60.1 °F 64% 29.76 in 10.0 mi South 5.8 mph - N/A   Clear
1:53 AM 71.1 °F - 60.1 °F 68% 29.75 in 10.0 mi SSW 6.9 mph - N/A   Clear
2:53 AM 73.0 °F - 59.0 °F 61% 29.74 in 10.0 mi SSW 8.1 mph - N/A   Clear
3:53 AM 72.0 °F - 57.9 °F 61% 29.74 in 10.0 mi SSW 8.1 mph - N/A   Clear
4:53 AM 71.1 °F - 57.9 °F 63% 29.73 in 10.0 mi SSW 8.1 mph - N/A   Clear
5:53 AM 71.1 °F - 57.0 °F 61% 29.73 in 10.0 mi South 9.2 mph - N/A   Clear
6:53 AM 66.9 °F - 57.9 °F 73% 29.75 in 10.0 mi Calm Calm - N/A   Clear
7:53 AM 66.9 °F - 57.9 °F 73% 29.76 in 10.0 mi Calm Calm - N/A   Clear
8:53 AM 75.9 °F - 57.9 °F 54% 29.75 in 10.0 mi Variable 5.8 mph - N/A   Clear
9:53 AM 81.0 °F 81.3 °F 59.0 °F 47% 29.75 in 10.0 mi Variable 5.8 mph - N/A   Clear
10:53 AM 87.1 °F 86.5 °F 59.0 °F 39% 29.75 in 10.0 mi SSW 8.1 mph - N/A   Clear
11:53 AM 89.1 °F 88.0 °F 57.9 °F 35% 29.75 in 10.0 mi West 11.5 mph - N/A   Clear
12:53 PM 93.0 °F 92.7 °F 60.1 °F 33% 29.75 in 10.0 mi West 9.2 mph - N/A   Clear
1:53 PM 95.0 °F 94.0 °F 57.9 °F 29% 29.73 in 10.0 mi SSW 6.9 mph 18.4 mph N/A   Clear
2:53 PM 96.1 °F 95.2 °F 57.9 °F 28% 29.72 in 10.0 mi SW 11.5 mph - N/A   Clear
3:53 PM 97.0 °F 95.0 °F 55.0 °F 24% 29.70 in 10.0 mi South 13.8 mph - N/A   Clear
4:53 PM 97.0 °F 94.6 °F 54.0 °F 23% 29.70 in 10.0 mi South 17.3 mph 23.0 mph N/A   Partly Cloudy
5:53 PM 95.0 °F - 48.9 °F 21% 29.70 in 10.0 mi South 18.4 mph 23.0 mph N/A   Mostly Cloudy
6:53 PM 91.0 °F - 46.9 °F 22% 29.72 in 10.0 mi South 10.4 mph 18.4 mph N/A   Clear
7:53 PM 86.0 °F - 50.0 °F 29% 29.74 in 10.0 mi South 6.9 mph - N/A   Scattered Clouds
8:53 PM 81.0 °F 80.5 °F 54.0 °F 39% 29.78 in 10.0 mi Calm Calm - N/A   Clear
9:53 PM 80.1 °F 81.9 °F 64.9 °F 60% 29.81 in 10.0 mi NNE 8.1 mph - N/A   Mostly Cloudy
10:53 PM 77.0 °F - 60.1 °F 56% 29.83 in 10.0 mi Variable 6.9 mph - N/A   Partly Cloudy
11:53 PM 73.9 °F - 60.1 °F 62% 29.85 in 10.0 mi NNE 9.2 mph 17.3 mph N/A   Scattered Clouds